Location: Erskine
(52.3216°N, 112.8806°W)
Time: 00:48:39
(UTC+00:00)

AAUSAT CUBESAT 2 - Visible Passes

Search period start: 07 December 2023 00:00
Search period end: 17 December 2023 00:00
Orbit: 533 x 545 km, 97.6° (Epoch: 06 December)

Date Brightness Start Highest point End Pass type
(mag) Time Alt. Az. Time Alt. Az. Time Alt. Az.
10 Dec ? 00:30:11 10° WSW 00:31:29 11° W 00:32:46 10° WNW visible
11 Dec ? 00:21:48 10° WSW 00:23:46 13° W 00:25:46 10° WNW visible
12 Dec ? 00:13:37 10° SW 00:16:03 16° W 00:18:30 10° NW visible
13 Dec ? 00:05:32 10° SW 00:08:19 19° W 00:11:07 10° NW visible
13 Dec ? 23:57:29 10° SW 00:00:33 22° W 00:03:38 10° NW visible
